sat.trackr.live / text

‹ back to catalog

STARLINK-30527

NORAD 58007 · 2023-153S

PAYLOAD ACTIVE UNKNOWN

§ Identity

Operator
Country
US
Launch date
2023-10-05
Launch site
AFETR
Launch vehicle
Mass (kg)
RCS (m²)

Purposes: comms

External: N2YO · Heavens-Above · Gunter

§ Orbital elements

Epoch: 2026-05-24T10:23:52.732608Z

Period
94.27 min
Inclination
43.0017°
Eccentricity
0.0001217
Mean motion
15.27583908 rev/d
Perigee alt
482.2 km
Apogee alt
483.9 km
Semi-major
6,861.2 km
B*
2.0998e-5
RAAN
130.6190°
Arg perigee
263.2003°
Mean anomaly
96.8710°
Rev number
14,904

§ Raw data

STARLINK-305271 58007U 23153S   26144.43324922  .00000316  00000+0  20998-4 0  99912 58007  43.0017 130.6190 0001217 263.2003  96.8710 15.27583908149041

JSON: /api/v1/satellites/58007 · /tle

For live sub-satellite position, see the globe view (requires WebGL).

§ Visibility from observer

Set your observer location to see the next 7 days of passes ≥ 10°. The values pass through the URL so the page stays shareable.

No JS? Fill the form by hand. The geolocation button needs JavaScript.